Location: Marcé
(47.5801°N, 0.3280°W)
Time: 03:02:45
(UTC+01:00)

Explorer 11/Cluster Stage 4 - Pass Details

Date: 05 December 2021
Orbit: 467 x 1255 km, 28.8° (Epoch: 26 January)

Event Time Altitude Azimuth Distance (km) Brightness Sun altitude
Rises 05:55:54 0° 244° (WSW) 3,810 - -25.6°
Reaches altitude 10° 05:59:55 10° 222° (SW) 2,996 - -24.9°
Exits shadow 06:01:16 13° 212° (SSW) 2,836 9.2 -24.7°
Maximum altitude 06:03:48 15° 191° (S) 2,743 9.3 -24.3°
Drops below altitude 10° 06:07:53 10° 160° (SSE) 3,178 10.0 -23.6°
Sets 06:12:23 0° 139° (SE) 4,185 11.1 -22.8°
